Tracking 30995 objects as of 5-Jul-2025
HD Live streaming from Space Station
objects crossing your sky now

MOLNIYA 1-S

Track MOLNIYA 1-S now!
MOLNIYA 1-S is classified as:


NORAD ID: 7392
Int'l Code: 1974-060A
Perigee: 35,749.6 km
Apogee: 35,827.5 km
Inclination: 2.3 °
Period: 1,435.8 minutes
Semi major axis: 42159 km
RCS: 1.5848 m2 (large)
Launch date: July 29, 1974
Source: Commonwealth of Independent States (former USSR) (CIS)
Launch site: TYURATAM MISSILE AND SPACE COMPLEX (TTMTR)
Your satellite tracking list
IRIDIUM 106
Track 1 satellite(s)




NASA's NSSDC Master Catalog

Two Line Element Set (TLE):
1 07392U 74060A   25186.57323164  .00000164  00000-0  00000-0 0  9992
2 07392   2.2562 262.2440 0009239 259.4403  10.8747  1.00290364130691
Source of the keplerian elements: AFSPC